Location: Newark
(25.0000°N, 73.5000°E)
Time: 14:08:37
(UTC+00:00)

Transit 2A Rocket - Visible Passes

Search period start: 06 May 2021 00:00
Search period end: 16 May 2021 00:00
Orbit: 594 x 908 km, 66.7° (Epoch: 05 May)

Date Brightness Start Highest point End Pass type
(mag) Time Alt. Az. Time Alt. Az. Time Alt. Az.
06 May 6.1 15:07:53 10° N 15:11:54 25° ENE 15:12:06 25° ENE visible
06 May 7.2 16:50:12 10° NW 16:52:01 19° WNW 16:52:01 19° WNW visible
07 May 6.8 14:26:51 10° NNE 14:29:09 13° ENE 14:31:05 11° E visible
07 May 5.7 16:06:58 10° NW 16:11:01 47° W 16:11:01 47° W visible
08 May 4.8 15:24:17 10° NNW 15:29:11 79° ENE 15:30:04 61° SE visible
09 May 5.5 14:42:00 10° N 14:46:35 39° ENE 14:49:11 23° ESE visible
09 May 7.2 16:25:42 10° WNW 16:28:52 17° WSW 16:29:08 17° WSW visible
10 May 6.4 14:00:16 10° NNE 14:03:54 20° ENE 14:07:45 10° ESE visible
10 May 6.3 15:41:54 10° NW 15:46:22 33° WSW 15:48:20 25° SSW visible
11 May 5.2 14:58:54 10° NNW 15:03:50 67° WSW 15:07:39 19° S visible
12 May 5.0 14:16:22 10° NNW 14:21:15 62° ENE 14:26:35 10° SSE visible
12 May 7.8 16:02:48 10° W 16:03:26 10° WSW 16:04:05 10° WSW visible
13 May 7.1 15:17:08 10° WNW 15:20:58 22° WSW 15:25:02 10° SSW visible
14 May 6.1 14:33:43 10° NW 14:38:27 42° WSW 14:43:35 10° S visible
